Location: Albany
(35.0000°S, 118.0000°E)
Time: 01:03:27
(UTC-05:00)

Amateur Radio Satellites - All Passes

Search period start: 08 February 2016 00:33
Search period end: 09 February 2016 00:33
Location: Albany, 35.0000°S, 118.0000°E

Satellite Date Start Highest point End Downlink Frequencies (MHz)
Time Altitude Azimuth
BEESAT 08 Feb 00:35:57 00:40:46 82° 284° (WNW) 00:45:39 436.000
Oscar 19 08 Feb 00:39:04 00:44:22 89° 79° (ENE) 00:49:36 437.125/150
JAS-2 08 Feb 00:39:35 00:46:58 67° 79° (ENE) 00:54:46 435.910
PHONESAT 2.4 08 Feb 00:41:05 00:44:23 72° 27° (NNE) 00:47:41 2401.200-2431.200
BEESAT 3 08 Feb 00:43:05 00:45:03 13° 131° (SE) 00:47:01 437.485
Gurwin Techsat 1B 08 Feb 00:51:32 00:56:36 41° 81° (E) 01:01:36 435.225
BEESAT 2 08 Feb 01:02:55 01:05:06 14° 131° (SE) 01:07:16 435.950
STARS 08 Feb 01:07:49 01:10:09 14° 114° (ESE) 01:12:29 437.465
KKS-1 08 Feb 01:16:45 01:20:46 33° 109° (ESE) 01:24:50 437.445
YUBILEINY 08 Feb 01:18:32 01:25:28 27° 97° (E) 01:32:24 435.215
SWISSCUBE 08 Feb 01:29:32 01:33:05 20° 275° (W) 01:36:40 437.505
AO-7 08 Feb 01:34:15 01:39:44 19° 86° (E) 01:45:11 29.400- 29.500
CUSAT 1 08 Feb 01:42:40 01:44:54 21° 258° (WSW) 01:47:02 437.405
ITAMSAT 1 08 Feb 01:42:54 01:48:08 67° 78° (ENE) 01:53:17 435.822/435.867
DANDE 08 Feb 01:56:52 02:00:11 43° 261° (W) 02:02:57 436.750
M-CUBED/EXP-1 PRIME 08 Feb 02:08:22 02:10:04 12° 85° (E) 02:11:44 437.505
PHONESAT 2.4 08 Feb 02:18:44 02:21:50 35° 189° (S) 02:24:56 2401.200-2431.200
BEESAT 3 08 Feb 02:19:13 02:23:05 50° 295° (WNW) 02:26:55 437.485
AUBIESAT-1 08 Feb 02:19:53 02:22:00 13° 85° (E) 02:24:04 437.475
JAS-2 08 Feb 02:25:52 02:31:23 24° 245° (WSW) 02:37:11 435.910
Cosmos 2491 08 Feb 02:27:13 02:35:45 54° 270° (W) 02:44:12 435.465 / 435.565
MOZHAYETS 4 08 Feb 02:29:42 02:34:22 80° 102° (ESE) 02:39:06
Gurwin Techsat 1B 08 Feb 02:32:10 02:36:13 22° 247° (WSW) 02:40:14 435.225
HORYU 2 08 Feb 02:38:55 02:42:01 18° 86° (E) 02:45:05 437.375
BEESAT 2 08 Feb 02:39:22 02:43:15 47° 295° (WNW) 02:47:06 435.950
AIST 2 08 Feb 02:40:00 02:42:42 16° 130° (SE) 02:45:23 435.215
STARS 08 Feb 02:41:50 02:46:04 46° 280° (W) 02:50:23 437.465
KKS-1 08 Feb 02:54:16 02:57:23 19° 275° (W) 03:00:32 437.445
CUBESAT XI-V 08 Feb 03:06:02 03:09:09 18° 112° (ESE) 03:12:17 437.345
YUBILEINY 08 Feb 03:13:04 03:21:38 57° 260° (W) 03:30:15 435.215
ITAMSAT 1 08 Feb 03:24:31 03:26:57 13° 243° (WSW) 03:29:24 435.822/435.867
AO-7 08 Feb 03:24:45 03:33:10 79° 251° (WSW) 03:41:32 29.400- 29.500
M-CUBED/EXP-1 PRIME 08 Feb 03:40:23 03:45:03 59° 250° (WSW) 03:49:25 437.505
AUBIESAT-1 08 Feb 03:52:19 03:56:51 51° 249° (WSW) 04:01:04 437.475
PHONESAT 2.4 08 Feb 03:56:30 03:59:34 33° 172° (S) 04:02:37 2401.200-2431.200
SO-50 08 Feb 04:02:00 04:06:19 58° 64° (ENE) 04:10:38 436.795
HORYU 2 08 Feb 04:14:31 04:18:40 35° 251° (WSW) 04:22:44 437.375
Cosmos 2504 08 Feb 04:15:16 04:22:51 80° 85° (E) 04:30:09 435.465 / 435.565
AIST 2 08 Feb 04:17:24 04:21:23 43° 294° (WNW) 04:25:21 435.215
STRAND 1 08 Feb 04:30:55 04:34:37 20° 114° (ESE) 04:38:20 437.568
BRITE-PL 08 Feb 04:38:03 04:40:40 14° 87° (E) 04:43:20 437.365/2234.400
CUBESAT XI-V 08 Feb 04:41:52 04:46:13 39° 278° (W) 04:50:35 437.345
CUTE-I 08 Feb 04:44:33 04:49:13 29° 83° (E) 04:53:49 437.470
Cubesat XI-IV 08 Feb 04:57:19 05:02:21 39° 82° (E) 05:07:19 437.490
LilacSat-2 08 Feb 05:17:28 05:21:24 60° 80° (E) 05:25:16 437.200
AO-7 08 Feb 05:20:09 05:24:36 16° 233° (SW) 05:29:04 29.400- 29.500
PHONESAT 2.4 08 Feb 05:33:44 05:37:05 88° 333° (NNW) 05:40:25 2401.200-2431.200
PRISM 08 Feb 05:37:16 05:40:38 25° 110° (ESE) 05:44:01 437.425
SO-50 08 Feb 05:44:49 05:47:08 14° 227° (SW) 05:49:27 436.795
DOVE 4 08 Feb 05:45:46 05:49:28 19° 87° (E) 05:53:09 437.250
GOMX 1 08 Feb 05:52:51 05:57:53 42° 81° (E) 06:03:02 467.674
HO-68 08 Feb 06:01:38 06:05:31 15° 88° (E) 06:09:23 435.675
STRAND 1 08 Feb 06:08:33 06:13:26 42° 279° (W) 06:18:22 437.568
Cosmos 2504 08 Feb 06:13:02 06:16:58 15° 248° (WSW) 06:20:50 435.465 / 435.565
BRITE-PL 08 Feb 06:14:17 06:19:21 62° 255° (WSW) 06:24:45 437.365/2234.400
CUTE-I 08 Feb 06:24:32 06:29:09 30° 248° (WSW) 06:33:43 437.470
Cubesat XI-IV 08 Feb 06:37:59 06:42:07 23° 247° (WSW) 06:46:13 437.490
GONETS M04 08 Feb 06:44:07 06:50:17 21° 99° (E) 06:56:26
O/OREOS (USA 219) 08 Feb 06:50:17 06:54:41 46° 74° (ENE) 06:59:08 437.305
CINEMA 3 08 Feb 06:54:55 06:59:30 33° 84° (E) 07:03:59 145.822/145.860
CANX-2 08 Feb 06:55:20 06:59:22 39° 82° (E) 07:03:20 2200.000
PHONESAT 2.4 08 Feb 07:12:04 07:14:01 15° 323° (NW) 07:15:58 2401.200-2431.200
PRISM 08 Feb 07:12:40 07:15:52 22° 276° (W) 07:19:06 437.425
CUBEBUG 2 08 Feb 07:16:45 07:20:07 19° 87° (E) 07:23:24 437.445
DOVE 4 08 Feb 07:22:14 07:27:17 47° 253° (WSW) 07:32:22 437.250
UWE-3 08 Feb 07:22:26 07:25:07 15° 88° (E) 07:27:45 435.000/436.395/437.385
UNISAT 6 08 Feb 07:30:33 07:31:38 11° 117° (ESE) 07:32:45 437.425
Oscar 11 08 Feb 07:31:16 07:33:51 15° 87° (E) 07:36:24 145.826/435.025
GOMX 1 08 Feb 07:31:41 07:35:38 22° 249° (WSW) 07:39:41 467.674
Cosmos 2499 08 Feb 07:34:06 07:37:17 13° 99° (E) 07:40:27 435.465 / 435.565
COMPASS 1 08 Feb 07:45:32 07:49:46 76° 79° (ENE) 07:53:55 437.405
CUTE 1.7 + AOD 2 08 Feb 07:46:13 07:50:25 55° 255° (WSW) 07:54:33 437.475
HO-68 08 Feb 07:46:38 07:53:52 81° 253° (WSW) 08:01:03 435.675
SEEDS 08 Feb 07:56:09 08:00:20 56° 255° (WSW) 08:04:26 437.485
DELFI C3 08 Feb 08:11:19 08:14:31 22° 84° (E) 08:17:40 145.870
ANTELSAT 08 Feb 08:12:12 08:16:18 31° 110° (ESE) 08:20:28 437.575/2403.000
AAUSAT CUBESAT 2 08 Feb 08:16:15 08:20:21 55° 255° (WSW) 08:24:24 437.432
JUGNU 08 Feb 08:16:29 08:19:55 16° 9° (N) 08:23:22 437.505
TIGRISAT 08 Feb 08:19:37 08:23:49 36° 108° (ESE) 08:28:09 435.000
ZACube-1 08 Feb 08:19:40 08:24:06 46° 81° (E) 08:28:24 437.345
FUNcube-1 08 Feb 08:29:43 08:34:15 58° 80° (E) 08:38:38 145.935
O/OREOS (USA 219) 08 Feb 08:31:34 08:34:20 16° 239° (WSW) 08:37:07 437.305
CINEMA 3 08 Feb 08:32:18 08:36:25 25° 249° (WSW) 08:40:28 145.822/145.860
CANX-2 08 Feb 08:32:25 08:34:51 15° 247° (WSW) 08:37:17 2200.000
POPSAT HIP 1 08 Feb 08:37:18 08:39:03 12° 115° (ESE) 08:40:49 437.405
GONETS M04 08 Feb 08:37:19 08:46:08 70° 262° (W) 08:55:03
NANOSAT C BR1 08 Feb 08:42:44 08:44:58 14° 114° (ESE) 08:47:12 145.865
DUCHIFAT 1 08 Feb 08:45:01 08:47:16 14° 114° (ESE) 08:49:32 145.980
QB50P1 08 Feb 08:48:58 08:51:47 17° 113° (ESE) 08:54:36 145.935-145.965
CUBEBUG 2 08 Feb 08:52:24 08:56:49 37° 252° (WSW) 09:01:06 437.445
HUMSAT D 08 Feb 08:55:42 08:59:33 31° 83° (E) 09:03:18 437.325/437.525
UWE-3 08 Feb 08:57:18 09:01:47 44° 253° (WSW) 09:06:06 435.000/436.395/437.385
UNISAT 6 08 Feb 09:03:04 09:07:39 70° 282° (WNW) 09:12:25 437.425
AO-85 08 Feb 09:03:17 09:06:44 28° 67° (ENE) 09:10:03 145.980
Oscar 11 08 Feb 09:06:02 09:10:06 38° 253° (WSW) 09:14:06 145.826/435.025
AIST 1 08 Feb 09:07:28 09:10:58 25° 91° (E) 09:14:29
RS-15 08 Feb 09:12:39 09:22:18 29° 76° (ENE) 09:31:38 29.354- 29.394
Cosmos 2499 08 Feb 09:22:06 09:29:26 80° 263° (W) 09:36:35 435.465 / 435.565
PCSat 08 Feb 09:26:48 09:31:45 38° 71° (ENE) 09:36:44 145.827
HO-68 08 Feb 09:37:16 09:40:27 13° 236° (SW) 09:43:37 435.675
POLYITAN 1 08 Feb 09:39:04 09:43:18 69° 104° (ESE) 09:47:38 437.675
QB50P2 08 Feb 09:39:49 09:44:04 73° 103° (ESE) 09:48:24 145.880/145.840
DELFI C3 08 Feb 09:46:10 09:49:18 22° 250° (WSW) 09:52:24 145.870
SRMSAT 08 Feb 09:49:18 09:52:18 14° 11° (NNE) 09:55:18 437.500
ANTELSAT 08 Feb 09:49:24 09:52:59 22° 274° (W) 09:56:39 437.575/2403.000
BUGSAT 1 08 Feb 09:52:55 09:56:46 43° 107° (ESE) 10:00:43 437.445
TIGRISAT 08 Feb 09:57:18 10:00:34 19° 274° (W) 10:03:56 435.000
ZACube-1 08 Feb 09:57:23 09:59:56 15° 246° (WSW) 10:02:26 437.345
VELOX 1 08 Feb 10:01:55 10:05:57 32° 83° (E) 10:09:58 145.980
JUGNU 08 Feb 10:04:14 10:08:13 18° 359° (N) 10:12:13 437.505
FUNcube-1 08 Feb 10:08:12 10:09:54 12° 245° (WSW) 10:11:36 145.935
POPSAT HIP 1 08 Feb 10:10:13 10:14:21 50° 280° (W) 10:18:34 437.405
NANOSAT C BR1 08 Feb 10:16:15 10:20:17 43° 279° (W) 10:24:24 145.865
AISAT 08 Feb 10:17:55 10:22:22 52° 80° (E) 10:26:45 437.250
DUCHIFAT 1 08 Feb 10:18:33 10:22:34 42° 279° (W) 10:26:40 145.980
50 SAT 08 Feb 10:20:34 10:24:22 73° 79° (ENE) 10:28:05 437.505
QB50P1 08 Feb 10:23:23 10:27:15 34° 278° (W) 10:31:12 145.935-145.965
HUMSAT D 08 Feb 10:31:58 10:34:55 18° 248° (WSW) 10:37:50 437.325/437.525
ESTCUBE 1 08 Feb 10:32:17 10:36:52 85° 75° (ENE) 10:41:23 437.505/2401.250
UKube-1 08 Feb 10:41:13 10:45:39 86° 76° (ENE) 10:50:01 .
GONETS M04 08 Feb 10:42:16 10:44:38 11° 242° (WSW) 10:47:01
CUBEBUG 1 08 Feb 10:43:03 10:47:32 83° 77° (ENE) 10:51:59 437.445
AO-85 08 Feb 10:44:19 10:47:07 19° 232° (SW) 10:49:53 145.980
AIST 1 08 Feb 10:45:12 10:48:29 21° 256° (WSW) 10:51:48
DX 1 08 Feb 10:49:56 10:54:19 63° 254° (WSW) 10:58:40 434.975-435.025
JAS-2 08 Feb 10:51:47 10:54:58 16° 119° (ESE) 10:58:18 435.910
SPROUT 08 Feb 10:53:56 10:57:59 36° 82° (E) 11:01:59 437.525
PCSat 08 Feb 11:10:40 11:15:11 26° 234° (SW) 11:19:45 145.827
TISAT 1 08 Feb 11:10:47 11:13:54 19° 85° (E) 11:16:59 437.305
RS-15 08 Feb 11:21:40 11:33:46 72° 239° (WSW) 11:45:22 29.354- 29.394
Cosmos 2499 08 Feb 11:23:15 11:23:38 10° 245° (WSW) 11:24:02 435.465 / 435.565
BUGSAT 1 08 Feb 11:30:56 11:32:23 12° 272° (W) 11:33:50 437.445
SRMSAT 08 Feb 11:36:43 11:40:45 18° 1° (N) 11:44:46 437.500
VELOX 1 08 Feb 11:38:54 11:42:12 20° 248° (WSW) 11:45:29 145.980
Oscar 19 08 Feb 11:52:29 11:57:38 89° 280° (W) 12:02:53 437.125/150
JUGNU 08 Feb 11:53:34 11:56:31 14° 348° (NNW) 11:59:28 437.505
AISAT 08 Feb 11:56:17 11:58:22 13° 245° (WSW) 12:00:26 437.250
SWISSCUBE 08 Feb 11:56:40 11:58:14 11° 88° (E) 11:59:48 437.505
Gurwin Techsat 1B 08 Feb 12:09:13 12:14:19 47° 108° (ESE) 12:19:28 435.225
CUSAT 1 08 Feb 12:15:43 12:20:39 84° 278° (W) 12:27:08 437.405
AO-7 08 Feb 12:30:18 12:36:08 22° 124° (ESE) 12:41:59 29.400- 29.500
ITUPSAT 1 08 Feb 12:30:27 12:34:25 25° 84° (E) 12:38:21 437.325
SPROUT 08 Feb 12:30:46 12:33:39 17° 248° (WSW) 12:36:30 437.525
JAS-2 08 Feb 12:34:11 12:39:22 58° 280° (W) 12:45:03 435.910
DANDE 08 Feb 12:35:13 12:39:25 73° 98° (E) 12:45:04 436.750
SO-50 08 Feb 12:36:37 12:40:13 23° 128° (SE) 12:43:53 436.795
BEESAT 08 Feb 12:39:49 12:44:09 32° 82° (E) 12:48:25 436.000
TISAT 1 08 Feb 12:45:47 12:49:34 30° 251° (WSW) 12:53:19 437.305
ITAMSAT 1 08 Feb 12:57:24 13:02:37 73° 105° (ESE) 13:07:54 435.822/435.867
AUBIESAT-1 08 Feb 13:04:20 13:05:22 11° 122° (ESE) 13:06:25 437.475
SRMSAT 08 Feb 13:25:45 13:29:13 16° 351° (N) 13:32:41 437.500
YUBILEINY 08 Feb 13:27:07 13:35:49 64° 99° (E) 13:44:28 435.215
Cosmos 2491 08 Feb 13:27:55 13:35:45 37° 94° (E) 13:43:38 435.465 / 435.565
SWISSCUBE 08 Feb 13:31:38 13:36:23 60° 254° (WSW) 13:41:04 437.505
HORYU 2 08 Feb 13:35:16 13:37:03 12° 116° (ESE) 13:38:51 437.375
RS-15 08 Feb 13:40:06 13:48:35 22° 213° (SSW) 13:56:54 29.354- 29.394
Gurwin Techsat 1B 08 Feb 13:50:51 13:54:27 18° 274° (W) 13:58:07 435.225
ITUPSAT 1 08 Feb 14:08:04 14:12:11 29° 250° (WSW) 14:16:16 437.325
Cosmos 2504 08 Feb 14:11:50 14:17:28 22° 108° (ESE) 14:23:19 435.465 / 435.565
SO-50 08 Feb 14:16:35 14:20:44 35° 294° (WNW) 14:24:58 436.795
BEESAT 08 Feb 14:18:00 14:21:43 22° 248° (WSW) 14:25:24 436.000
AO-7 08 Feb 14:19:41 14:27:59 78° 286° (WNW) 14:36:23 29.400- 29.500
M-CUBED/EXP-1 PRIME 08 Feb 14:23:33 14:27:45 80° 287° (WNW) 14:32:21 437.505
MOZHAYETS 4 08 Feb 14:28:49 14:32:35 24° 85° (E) 14:36:17
STARS 08 Feb 14:34:33 14:38:48 40° 81° (E) 14:42:59 437.465
AUBIESAT-1 08 Feb 14:34:58 14:39:10 71° 285° (WNW) 14:43:42 437.475
ITAMSAT 1 08 Feb 14:41:14 14:42:33 11° 271° (W) 14:43:52 435.822/435.867
KKS-1 08 Feb 14:46:53 14:51:27 75° 256° (WSW) 14:55:58 437.445
ISS 08 Feb 14:48:27 14:51:45 71° 44° (NE) 14:55:06 145.825
HORYU 2 08 Feb 15:08:38 15:13:04 58° 281° (W) 15:17:35 437.375
Cosmos 2491 08 Feb 15:24:07 15:32:21 43° 256° (WSW) 15:40:43 435.465 / 435.565
YUBILEINY 08 Feb 15:25:22 15:31:48 24° 262° (W) 15:38:16 435.215
LilacSat-2 08 Feb 15:57:10 15:59:56 19° 110° (ESE) 16:02:43 437.200
CUTE-I 08 Feb 16:03:01 16:07:54 36° 110° (ESE) 16:12:48 437.470
Cosmos 2504 08 Feb 16:03:49 16:11:11 61° 272° (W) 16:19:02 435.465 / 435.565
RS-15 08 Feb 16:03:53 16:07:40 12° 176° (S) 16:11:24 29.354- 29.394
MOZHAYETS 4 08 Feb 16:05:46 16:09:40 27° 250° (WSW) 16:13:31
BEESAT 3 08 Feb 16:07:06 16:10:57 59° 64° (ENE) 16:14:50 437.485
STARS 08 Feb 16:11:58 16:14:48 17° 247° (WSW) 16:17:37 437.465
Cubesat XI-IV 08 Feb 16:15:53 16:21:02 48° 108° (ESE) 16:26:15 437.490
AO-7 08 Feb 16:19:08 16:21:48 12° 270° (W) 16:24:29 29.400- 29.500
ISS 08 Feb 16:26:35 16:28:32 15° 208° (SSW) 16:30:31 145.825
BEESAT 2 08 Feb 16:28:23 16:32:18 65° 64° (ENE) 16:36:15 435.950
CUBESAT XI-V 08 Feb 16:41:19 16:46:00 67° 79° (ENE) 16:50:37 437.345
DOVE 4 08 Feb 16:50:58 16:51:45 10° 117° (ESE) 16:52:32 437.250
GOMX 1 08 Feb 16:58:52 17:02:23 26° 110° (ESE) 17:06:03 467.674
O/OREOS (USA 219) 08 Feb 17:03:33 17:08:00 51° 113° (ESE) 17:12:22 437.305
BRITE-PL 08 Feb 17:22:38 17:26:46 74° 282° (WNW) 17:31:03 437.365/2234.400
LilacSat-2 08 Feb 17:30:51 17:34:03 25° 276° (W) 17:37:19 437.200
AO-85 08 Feb 17:38:02 17:39:55 13° 131° (SE) 17:41:50 145.980
CUTE-I 08 Feb 17:43:36 17:47:57 25° 276° (W) 17:52:21 437.470
CANX-2 08 Feb 17:45:31 17:48:39 20° 111° (ESE) 17:51:47 2200.000
BEESAT 3 08 Feb 17:47:42 17:49:04 11° 227° (SW) 17:50:26 437.485
CINEMA 3 08 Feb 17:54:05 17:57:18 20° 113° (ESE) 18:00:39 145.822/145.860
Cubesat XI-IV 08 Feb 17:57:37 18:01:18 19° 274° (W) 18:05:01 437.490
BEESAT 2 08 Feb 18:09:34 18:10:36 11° 227° (SW) 18:11:38 435.950
HO-68 08 Feb 18:11:10 18:18:08 55° 110° (ESE) 18:25:08 435.675
AIST 2 08 Feb 18:11:27 18:15:34 86° 64° (ENE) 18:19:44 435.215
CUBEBUG 2 08 Feb 18:13:32 18:14:53 11° 116° (ESE) 18:16:14 437.445
RS-15 08 Feb 18:16:41 18:25:52 28° 140° (SE) 18:34:46 29.354- 29.394
PCSat 08 Feb 18:18:41 18:22:13 17° 130° (SE) 18:25:44 145.827
CUBESAT XI-V 08 Feb 18:21:33 18:22:45 11° 244° (WSW) 18:23:58 437.345
STRAND 1 08 Feb 18:22:06 18:27:17 86° 80° (E) 18:32:24 437.568
DOVE 4 08 Feb 18:24:33 18:28:46 62° 280° (W) 18:33:18 437.250
COMPASS 1 08 Feb 18:33:08 18:36:56 32° 108° (ESE) 18:40:45 437.405
CUTE 1.7 + AOD 2 08 Feb 18:35:03 18:39:20 66° 104° (ESE) 18:43:40 437.475
GOMX 1 08 Feb 18:37:15 18:40:28 21° 274° (W) 18:43:48 467.674
SEEDS 08 Feb 18:44:07 18:48:21 62° 104° (ESE) 18:52:38 437.485
O/OREOS (USA 219) 08 Feb 18:45:13 18:46:51 12° 278° (W) 18:48:28 437.305
GONETS M04 08 Feb 18:52:01 19:00:33 51° 102° (ESE) 19:08:56
PRISM 08 Feb 18:56:33 19:00:40 63° 79° (ENE) 19:04:46 437.425
AAUSAT CUBESAT 2 08 Feb 19:02:49 19:06:58 61° 104° (ESE) 19:11:10 437.432
ZACube-1 08 Feb 19:12:21 19:16:03 25° 110° (ESE) 19:19:50 437.345
AO-85 08 Feb 19:16:23 19:20:38 65° 297° (WNW) 19:25:16 145.980
Cosmos 2499 08 Feb 19:16:27 19:22:54 29° 105° (ESE) 19:29:40 435.465 / 435.565
CANX-2 08 Feb 19:20:26 19:24:16 30° 277° (W) 19:28:08 2200.000
FUNcube-1 08 Feb 19:21:55 19:25:51 30° 109° (ESE) 19:29:53 145.935
CINEMA 3 08 Feb 19:30:04 19:34:07 34° 277° (W) 19:38:26 145.822/145.860
HUMSAT D 08 Feb 19:44:46 19:47:25 16° 113° (ESE) 19:50:06 437.325/437.525
CUBEBUG 2 08 Feb 19:46:20 19:50:49 66° 281° (W) 19:55:32 437.445
UWE-3 08 Feb 19:50:09 19:54:40 83° 282° (WNW) 19:59:23 435.000/436.395/437.385
Oscar 11 08 Feb 19:56:42 20:01:06 78° 281° (W) 20:05:32 145.826/435.025
HO-68 08 Feb 20:00:29 20:06:06 24° 275° (W) 20:11:46 435.675
PCSat 08 Feb 20:00:40 20:06:04 64° 293° (WNW) 20:11:24 145.827
STRAND 1 08 Feb 20:05:23 20:05:40 10° 241° (WSW) 20:05:57 437.568
COMPASS 1 08 Feb 20:09:45 20:12:33 17° 274° (W) 20:15:23 437.405
DELFI C3 08 Feb 20:28:02 20:32:03 59° 281° (W) 20:36:06 145.870
RS-15 08 Feb 20:28:30 20:39:34 83° 296° (WNW) 20:50:26 29.354- 29.394
ZACube-1 08 Feb 20:48:26 20:52:13 26° 275° (W) 20:56:05 437.345
GONETS M04 08 Feb 20:49:36 20:56:52 30° 264° (W) 21:04:03
AIST 1 08 Feb 20:54:17 20:58:39 65° 98° (E) 21:03:00
VELOX 1 08 Feb 20:56:48 20:59:58 20° 112° (ESE) 21:03:10 145.980
50 SAT 08 Feb 20:58:06 21:01:06 22° 109° (ESE) 21:04:08 437.505
FUNcube-1 08 Feb 20:58:39 21:02:05 21° 274° (W) 21:05:36 145.935
UNISAT 6 08 Feb 20:58:43 21:02:55 32° 83° (E) 21:07:00 437.425
Cosmos 2499 08 Feb 21:08:52 21:16:07 49° 271° (W) 21:23:53 435.465 / 435.565
AISAT 08 Feb 21:12:23 21:16:15 31° 109° (ESE) 21:20:10 437.250
HUMSAT D 08 Feb 21:18:40 21:22:41 38° 278° (W) 21:26:49 437.325/437.525
ISS 08 Feb 21:19:17 21:21:57 21° 148° (SSE) 21:24:36 145.825
ESTCUBE 1 08 Feb 21:28:21 21:32:44 51° 106° (ESE) 21:37:10 437.505/2401.250
POLYITAN 1 08 Feb 21:28:57 21:31:28 15° 87° (E) 21:33:57 437.675
QB50P2 08 Feb 21:29:33 21:32:12 16° 87° (E) 21:34:50 145.880/145.840
UKube-1 08 Feb 21:32:26 21:36:34 46° 107° (ESE) 21:40:45 .
CUBEBUG 1 08 Feb 21:35:44 21:39:51 43° 107° (ESE) 21:44:01 437.445
DX 1 08 Feb 21:41:49 21:46:10 73° 106° (ESE) 21:50:33 434.975-435.025
ANTELSAT 08 Feb 21:43:25 21:48:08 78° 257° (WSW) 21:52:40 437.575/2403.000
SPROUT 08 Feb 21:45:15 21:48:17 19° 112° (ESE) 21:51:19 437.525
TIGRISAT 08 Feb 21:50:46 21:55:28 68° 256° (WSW) 21:59:59 435.000
POPSAT HIP 1 08 Feb 21:58:34 22:02:30 33° 83° (E) 22:06:23 437.405
NANOSAT C BR1 08 Feb 22:04:02 22:08:05 37° 82° (E) 22:12:04 145.865
DUCHIFAT 1 08 Feb 22:06:04 22:10:06 37° 82° (E) 22:14:06 145.980
QB50P1 08 Feb 22:11:07 22:15:21 47° 80° (E) 22:19:30 145.935-145.965
50 SAT 08 Feb 22:32:04 22:35:01 21° 276° (W) 22:38:01 437.505
VELOX 1 08 Feb 22:32:15 22:36:11 32° 278° (W) 22:40:11 145.980
UNISAT 6 08 Feb 22:35:51 22:39:23 21° 248° (WSW) 22:42:50 437.425
RS-15 08 Feb 22:44:35 22:50:04 15° 279° (W) 22:55:33 29.354- 29.394
AISAT 08 Feb 22:49:31 22:52:45 20° 275° (W) 22:56:01 437.250
ISS 08 Feb 22:55:23 22:58:29 36° 312° (NW) 23:01:33 145.825
SWISSCUBE 08 Feb 23:01:44 23:02:10 10° 118° (ESE) 23:02:36 437.505
POLYITAN 1 08 Feb 23:03:20 23:07:25 39° 253° (WSW) 23:11:25 437.675
QB50P2 08 Feb 23:04:06 23:08:07 37° 252° (WSW) 23:12:05 145.880/145.840
ESTCUBE 1 08 Feb 23:07:55 23:09:48 12° 272° (W) 23:11:42 437.505/2401.250
UKube-1 08 Feb 23:10:56 23:12:50 13° 273° (W) 23:14:45 .
BUGSAT 1 08 Feb 23:12:58 23:17:15 65° 255° (WSW) 23:21:30 437.445
CUBEBUG 1 08 Feb 23:14:14 23:16:20 13° 273° (W) 23:18:28 437.445
SPROUT 08 Feb 23:20:09 23:23:59 31° 277° (W) 23:27:53 437.525
TISAT 1 08 Feb 23:33:31 23:37:40 62° 281° (W) 23:41:55 437.305
ITUPSAT 1 08 Feb 23:34:23 23:38:00 21° 113° (ESE) 23:41:38 437.325
POPSAT HIP 1 08 Feb 23:35:01 23:38:01 18° 248° (WSW) 23:41:00 437.405
NANOSAT C BR1 08 Feb 23:40:46 23:43:29 16° 247° (WSW) 23:46:10 145.865
DUCHIFAT 1 08 Feb 23:42:48 23:45:28 16° 247° (WSW) 23:48:08 145.980
BEESAT 08 Feb 23:43:12 23:47:12 27° 111° (ESE) 23:51:15 436.000
Cosmos 2491 08 Feb 23:44:14 23:48:39 14° 116° (ESE) 23:53:01 435.465 / 435.565
JAS-2 08 Feb 23:45:39 23:51:49 27° 85° (E) 23:58:10 435.910
PHONESAT 2.4 08 Feb 23:46:47 23:49:56 44° 30° (NNE) 23:53:07 2401.200-2431.200
QB50P1 08 Feb 23:48:37 23:50:40 13° 246° (WSW) 23:52:43 145.935-145.965
Oscar 19 09 Feb 00:07:34 00:12:34 42° 81° (E) 00:17:30 437.125/150
BEESAT 3 09 Feb 00:28:58 00:31:08 14° 131° (SE) 00:33:17 437.485
